Location: Anjeux
(47.8815°N, 6.2076°E)
Time: 21:41:55
(UTC+00:00)

CZ-4C R/B - Pass Details

Date: 05 March 2021
Orbit: 613 x 1389 km, 63.4° (Epoch: 21 April)

Event Time Altitude Azimuth Distance (km) Brightness Sun altitude
Rises 05:29:30 0° 219° (SW) 3,014 4.7 -7.3°
Reaches altitude 10° 05:31:38 10° 220° (SW) 2,171 4.0 -6.9°
Maximum altitude 05:36:34 88° 309° (NW) 802 2.1 -6.1°
Drops below altitude 10° 05:42:37 10° 41° (NE) 2,637 5.3 -5.1°
Sets 05:45:26 0° 41° (NE) 3,715 6.1 -4.6°
